Time,TemperatureF,DewpointF,PressureIn,WindDirection,WindDirectionDegrees,WindSpeedMPH,WindSpeedGustMPH,Humidity,HourlyPrecipIn,Conditions,Clouds,dailyrainin,SoftwareType,DateUTC
2013-08-18 07:34:00,69.1,54.6,29.82,SW,225,2.7,-999.0,60,-99.99,,,0.00,Acu-Link.com,2013-08-18 14:34:00,
2013-08-18 07:49:00,69.8,54.8,29.82,SW,225,3.7,-999.0,59,-99.99,,,0.00,Acu-Link.com,2013-08-18 14:49:00,
2013-08-18 08:05:00,71.4,54.9,29.83,SW,225,5.3,-999.0,56,-99.99,,,0.00,Acu-Link.com,2013-08-18 15:05:00,
2013-08-18 08:20:00,73.2,55.5,29.83,SW,225,4.2,-999.0,54,-99.99,,,0.00,Acu-Link.com,2013-08-18 15:20:00,
2013-08-18 08:35:00,77.2,56.0,29.83,SW,225,0.0,-999.0,48,-99.99,,,0.00,Acu-Link.com,2013-08-18 15:35:00,
2013-08-18 08:50:00,81.5,57.5,29.84,North,0,3.7,-999.0,44,-99.99,,,0.00,Acu-Link.com,2013-08-18 15:50:00,
2013-08-18 09:05:00,81.5,57.5,29.83,North,0,2.7,-999.0,44,-99.99,,,0.00,Acu-Link.com,2013-08-18 16:05:00,
2013-08-18 09:20:00,79.7,57.1,29.84,North,0,3.2,-999.0,46,-99.99,,,0.00,Acu-Link.com,2013-08-18 16:20:00,
2013-08-18 09:35:00,81.7,58.3,29.84,North,0,2.2,-999.0,45,-99.99,,,0.00,Acu-Link.com,2013-08-18 16:35:00,
2013-08-18 09:51:00,83.8,58.2,29.83,North,0,3.7,-999.0,42,-99.99,,,0.00,Acu-Link.com,2013-08-18 16:51:00,
2013-08-18 10:07:00,87.8,59.0,29.83,North,0,3.2,-999.0,38,-99.99,,,0.00,Acu-Link.com,2013-08-18 17:07:00,
2013-08-18 10:22:00,84.9,59.9,29.83,North,0,3.7,-999.0,43,-99.99,,,0.00,Acu-Link.com,2013-08-18 17:22:00,
2013-08-18 10:37:00,87.6,60.3,29.83,North,0,4.7,-999.0,40,-99.99,,,0.00,Acu-Link.com,2013-08-18 17:37:00,
2013-08-18 10:52:00,86.4,59.2,29.83,North,0,2.7,-999.0,40,-99.99,,,0.00,Acu-Link.com,2013-08-18 17:52:00,
2013-08-18 11:07:00,87.4,60.8,29.83,North,0,3.7,-999.0,41,-99.99,,,0.00,Acu-Link.com,2013-08-18 18:07:00,
2013-08-18 11:22:00,89.2,59.5,29.83,North,0,2.7,-999.0,37,-99.99,,,0.00,Acu-Link.com,2013-08-18 18:22:00,
2013-08-18 11:37:00,87.8,60.4,29.83,North,0,2.7,-999.0,40,-99.99,,,0.00,Acu-Link.com,2013-08-18 18:37:00,
2013-08-18 11:52:00,86.4,59.9,29.82,North,0,3.7,-999.0,41,-99.99,,,0.00,Acu-Link.com,2013-08-18 18:52:00,
2013-08-18 12:08:00,82.8,58.6,29.82,North,0,3.2,-999.0,44,-99.99,,,0.00,Acu-Link.com,2013-08-18 19:08:00,
2013-08-18 12:23:00,83.7,58.8,29.82,North,0,2.2,-999.0,43,-99.99,,,0.00,Acu-Link.com,2013-08-18 19:23:00,
2013-08-18 12:38:00,82.9,58.7,29.81,North,0,3.2,-999.0,44,-99.99,,,0.00,Acu-Link.com,2013-08-18 19:38:00,
2013-08-18 12:53:00,81.7,58.3,29.81,North,0,3.2,-999.0,45,-99.99,,,0.00,Acu-Link.com,2013-08-18 19:53:00,
2013-08-18 13:08:00,84.2,59.2,29.81,NNW,337,3.2,-999.0,43,-99.99,,,0.00,Acu-Link.com,2013-08-18 20:08:00,
2013-08-18 13:23:00,85.3,59.6,29.80,North,0,2.7,-999.0,42,-99.99,,,0.00,Acu-Link.com,2013-08-18 20:23:00,
2013-08-18 13:38:00,81.1,58.3,29.80,ENE,67,4.7,-999.0,46,-99.99,,,0.00,Acu-Link.com,2013-08-18 20:38:00,
2013-08-18 13:53:00,81.3,58.5,29.80,NNW,337,4.7,-999.0,46,-99.99,,,0.00,Acu-Link.com,2013-08-18 20:53:00,
2013-08-18 14:08:00,82.6,59.1,29.80,North,0,3.2,-999.0,45,-99.99,,,0.00,Acu-Link.com,2013-08-18 21:08:00,
2013-08-18 14:24:00,82.9,58.7,29.79,North,0,4.2,-999.0,44,-99.99,,,0.00,Acu-Link.com,2013-08-18 21:24:00,
2013-08-18 14:39:00,81.0,58.2,29.79,NNW,337,4.7,-999.0,46,-99.99,,,0.00,Acu-Link.com,2013-08-18 21:39:00,
2013-08-18 14:54:00,78.8,58.0,29.79,North,0,3.7,-999.0,49,-99.99,,,0.00,Acu-Link.com,2013-08-18 21:54:00,
2013-08-18 15:09:00,79.0,57.6,29.78,North,0,4.7,-999.0,48,-99.99,,,0.00,Acu-Link.com,2013-08-18 22:09:00,
2013-08-18 15:24:00,79.7,58.3,29.78,North,0,5.3,-999.0,48,-99.99,,,0.00,Acu-Link.com,2013-08-18 22:24:00,
2013-08-18 15:39:00,79.5,57.5,29.77,East,90,5.3,-999.0,47,-99.99,,,0.00,Acu-Link.com,2013-08-18 22:39:00,
2013-08-18 15:55:00,79.0,57.6,29.76,North,0,4.2,-999.0,48,-99.99,,,0.00,Acu-Link.com,2013-08-18 22:55:00,
2013-08-18 16:10:00,80.1,57.4,29.76,NNW,337,4.2,-999.0,46,-99.99,,,0.00,Acu-Link.com,2013-08-18 23:10:00,
2013-08-18 16:25:00,79.7,57.1,29.75,NNW,337,4.7,-999.0,46,-99.99,,,0.00,Acu-Link.com,2013-08-18 23:25:00,
2013-08-18 16:40:00,79.2,57.2,29.75,NNW,337,6.3,-999.0,47,-99.99,,,0.00,Acu-Link.com,2013-08-18 23:40:00,
2013-08-18 16:55:00,77.9,57.2,29.75,North,0,4.7,-999.0,49,-99.99,,,0.00,Acu-Link.com,2013-08-18 23:55:00,
2013-08-18 17:10:00,76.5,56.5,29.75,ESE,112,4.7,-999.0,50,-99.99,,,0.00,Acu-Link.com,2013-08-19 00:10:00,
2013-08-18 17:25:00,76.8,56.7,29.75,North,0,4.7,-999.0,50,-99.99,,,0.00,Acu-Link.com,2013-08-19 00:25:00,
2013-08-18 17:40:00,76.6,57.1,29.74,North,0,4.2,-999.0,51,-99.99,,,0.00,Acu-Link.com,2013-08-19 00:40:00,
2013-08-18 17:55:00,76.1,56.6,29.74,NNW,337,5.8,-999.0,51,-99.99,,,0.00,Acu-Link.com,2013-08-19 00:55:00,
2013-08-18 18:11:00,74.3,55.5,29.74,NNW,337,4.7,-999.0,52,-99.99,,,0.00,Acu-Link.com,2013-08-19 01:11:00,
2013-08-18 18:26:00,74.1,55.3,29.73,North,0,5.8,-999.0,52,-99.99,,,0.00,Acu-Link.com,2013-08-19 01:26:00,
2013-08-18 18:41:00,74.5,55.7,29.72,North,0,3.7,-999.0,52,-99.99,,,0.00,Acu-Link.com,2013-08-19 01:41:00,
2013-08-18 18:56:00,72.9,54.8,29.73,North,0,5.3,-999.0,53,-99.99,,,0.00,Acu-Link.com,2013-08-19 01:56:00,
2013-08-18 19:11:00,73.6,55.4,29.72,North,0,4.2,-999.0,53,-99.99,,,0.00,Acu-Link.com,2013-08-19 02:11:00,
2013-08-18 19:26:00,74.8,56.0,29.73,North,0,2.2,-999.0,52,-99.99,,,0.00,Acu-Link.com,2013-08-19 02:26:00,
2013-08-18 19:41:00,73.9,55.7,29.73,North,0,3.7,-999.0,53,-99.99,,,0.00,Acu-Link.com,2013-08-19 02:41:00,
2013-08-18 19:56:00,75.2,55.8,29.73,North,0,4.2,-999.0,51,-99.99,,,0.00,Acu-Link.com,2013-08-19 02:56:00,
2013-08-18 20:11:00,75.9,56.5,29.73,SW,225,4.2,-999.0,51,-99.99,,,0.00,Acu-Link.com,2013-08-19 03:11:00,
2013-08-18 20:27:00,76.5,56.5,29.72,NNW,337,2.7,-999.0,50,-99.99,,,0.00,Acu-Link.com,2013-08-19 03:27:00,
2013-08-18 20:42:00,75.7,55.7,29.73,NNW,337,3.7,-999.0,50,-99.99,,,0.00,Acu-Link.com,2013-08-19 03:42:00,
2013-08-18 20:57:00,74.3,55.5,29.73,NNW,337,3.2,-999.0,52,-99.99,,,0.00,Acu-Link.com,2013-08-19 03:57:00,
2013-08-18 21:12:00,75.0,56.2,29.73,NNW,337,2.7,-999.0,52,-99.99,,,0.00,Acu-Link.com,2013-08-19 04:12:00,
2013-08-18 21:27:00,76.8,56.2,29.74,NNW,337,1.7,-999.0,49,-99.99,,,0.00,Acu-Link.com,2013-08-19 04:27:00,
2013-08-18 21:42:00,78.4,57.1,29.74,NNW,337,1.1,-999.0,48,-99.99,,,0.00,Acu-Link.com,2013-08-19 04:42:00,
2013-08-18 21:57:00,78.4,56.5,29.74,NNW,337,2.2,-999.0,47,-99.99,,,0.00,Acu-Link.com,2013-08-19 04:57:00,
2013-08-18 22:12:00,78.3,56.4,29.74,NNW,337,0.0,-999.0,47,-99.99,,,0.00,Acu-Link.com,2013-08-19 05:12:00,
2013-08-18 22:27:00,76.8,56.2,29.74,NNW,337,0.0,-999.0,49,-99.99,,,0.00,Acu-Link.com,2013-08-19 05:27:00,
2013-08-18 22:43:00,72.3,54.2,29.75,NNW,337,3.2,-999.0,53,-99.99,,,0.00,Acu-Link.com,2013-08-19 05:43:00,
2013-08-18 22:58:00,71.4,53.9,29.75,NNW,337,3.2,-999.0,54,-99.99,,,0.00,Acu-Link.com,2013-08-19 05:58:00,
2013-08-18 23:13:00,73.0,54.8,29.75,NNW,337,2.2,-999.0,53,-99.99,,,0.00,Acu-Link.com,2013-08-19 06:13:00,
2013-08-18 23:28:00,70.0,53.6,29.75,North,0,2.7,-999.0,56,-99.99,,,0.00,Acu-Link.com,2013-08-19 06:28:00,
2013-08-18 23:43:00,71.4,53.9,29.75,North,0,1.7,-999.0,54,-99.99,,,0.00,Acu-Link.com,2013-08-19 06:43:00,
2013-08-18 23:58:00,71.8,54.2,29.77,North,0,1.7,-999.0,54,-99.99,,,0.00,Acu-Link.com,2013-08-19 06:58:00,